Regional Weather Roundup
Issued by NWS Charleston, SC

Current Version | Previous Version | Text Only | Print | Product List | Glossary Off
Versions: 1 2 3 4 5 6 7 8 9 10 11 12 13 14 15 16 17 18 19 20 21 22 23 24 25 26 27 28 29 30 31 32 33 34 35 36 37 38 39 40 41 42 43 44 45 46 47 48 49 50
000 ASUS42 KCHS 191110 RWRCHS REGIONAL WEATHER ROUNDUP NATIONAL WEATHER SERVICE CHARLESTON SC 600 AM EST FRI DEC 19 2014 NOTE: "FAIR" INDICATES FEW OR NO CLOUDS BELOW 12,000 FEET WITH NO SIGNIFICANT WEATHER AND/OR OBSTRUCTIONS TO VISIBILITY. NOT ALL STATIONS ARE QUALITY CONTROLLED BY THE NATIONAL WEATHER SERVICE. USE DATA WITH CAUTION...ESPECIALLY DEWPOINT OBSERVATIONS. SCZ027-030-031-034>040-042>050-191200- ...SOUTHEAST SOUTH CAROLINA... CITY SKY/WX TMP DP RH WIND PRES REMARKS N CHARLESTON PTCLDY 41 40 96 CALM 30.09R WATERFRONT PRK N/A 48 N/A N/A CALM N/A MOUNT PLEASANT MIX PCPN 39 39 100 CALM 30.09R PINOPOLIS N/A 46 45 93 MISG 30.01R MONCKS CORNER FAIR 39 37 93 CALM 30.09R SUMMERVILLE NOT AVBL BEAUFORT MCAS CLOUDY 45 42 89 CALM 30.09R BEAUFORT ARPT FAIR 45 45 100 CALM 30.08R HILTON HEAD IS NOT AVBL WALTERBORO PTSUNNY 41 N/A N/A CALM 30.09S ALLENDALE FAIR 39 37 93 CALM 30.09R FOG ...SOUTHERN MIDLANDS AND PEE DEE... CITY SKY/WX TMP DP RH WIND PRES REMARKS GEORGETOWN NOT AVBL KINGSTREE NOT AVBL ORANGEBURG PTCLDY 39 35 86 CALM 30.08S BARNWELL N/A 36 34 93 CALM 30.10R AIKEN FAIR 41 37 87 W3 30.11R MANNING NOT AVBL COLUMBIA PTCLDY 36 32 85 CALM 30.08S SUMTER PTCLDY 37 34 90 CALM 30.07S FLORENCE PTCLDY 36 33 89 CALM 30.10R MYRTLE BEACH NOT AVBL N MYRTLE BEACH MOCLDY 35 34 96 CALM 30.10R $$ GAZ063-065-086>088-099>101-113>116-118-119-134>141-150-191200- ...SOUTHEAST GEORGIA... CITY SKY/WX TMP DP RH WIND PRES REMARKS SAVANNAH ARPT PTCLDY 44 39 82 CALM 30.10R HUNTER AAF PTCLDY 42 39 92 W3 30.08R FORT STEWART CLEAR 42 39 89 CALM 30.09R STATESBORO PTCLDY 37 37 100 CALM 30.10R SYLVANIA MOSUNNY 38 38 100 CALM 30.11R CLAXTON PTSUNNY 37 37 100 CALM 30.11R ...CSRA...CENTRAL AND FAR SOUTHEAST GEORGIA... CITY SKY/WX TMP DP RH WIND PRES REMARKS THOMSON PTCLDY 36 36 100 CALM 30.15R AUGUSTA-BUSH CLEAR 33 32 96 CALM 30.10R FOG AUGUSTA-DANIEL CLEAR 44 36 73 NW6 30.09R SWAINSBORO FAIR 37 37 100 CALM 30.12R VIDALIA PTCLDY 45 36 70 NW5 30.12R EASTMAN FAIR 36 36 100 CALM 30.15S HAZLEHURST FAIR 43 40 88 CALM 30.10S ALMA PTCLDY 45 36 70 NW5 30.10R WAYCROSS CLOUDY 46 44 90 CALM 30.10S JESUP CLOUDY 43 41 93 CALM 30.11R BAXLEY FAIR 45 39 81 CALM 30.11R BRUNSWICK MOCLDY 43 41 93 CALM 30.12R SAINT SIMONS MOCLDY 48 40 73 NW3 30.10R $$ SCZ027-028-034-036>038-045-046-048>050-GAZ119-141-191200- ...LAKE AND SUPPLEMENTAL COASTAL OBSERVATIONS... STATION/POSITION TIME TEMP WIND PRES WAVE SWELL AIR SEA DIR/SP/G HT/PER HT/PER/DIR (UTC) (F) (DEG/KT/KT) (MB) (FT/S) (FT/S/D) UPR LAKE MARION NOT AVBL WINYAH BAY 1000 42 310/ 2 1018.0S LAKE MURRAY 1000 44 280/ 2/ 5 1018.3S ACE BASIN NERRS 1000 43 CALM 1018.0S FORT PULASKI 1100 50 57 300/ 3/ 4 1019.1R SAPELO ISLAND 1000 46 360/ 1 1019.0S $$ ANZ835-935-AMZ111-154-330-350-352-354-370-450-454-472-191200- ...C-MAN AND BUOY OBSERVATIONS... STATION/POSITION TIME TEMP WIND PRES WAVE SWELL AIR SEA DIR/SP/G HT/PER HT/PER/DIR (UTC) (F) (DEG/KT/KT) (MB) (FT/S) (FT/S/D) BUOY 41004 1100 60 72 320/ 6/ 8 1018.1S 1/10 2/10 BUOY 41008 1100 56 57 340/ 6/ 6 1018.8R 1/11 FOLLY BEACH CMAN 1000 50 190/ 1/ 2 1018.7F CAPERS NEARSHORE 1000 51 CALM / 2 N/A FRIPP NEARSHORE NOT AVBL STATION/POSITION TIME TEMP WIND PRES WAVE SWELL AIR SEA DIR/SP/G HT/PER HT/PER/DIR (UTC) (F) (DEG/KT/KT) (MB) (FT/S) (FT/S/D) 5E ST. MARYS GA 1100 60 N/A 1/11 FRYING PAN BUOY 1100 56 65 340/ 8/ 10 1019.6R 2/11 2/130/11 BUOY 41025 1100 47 1019.0R 2/ 9 CAPE LOOKOUT NC 1000 48 330/ 6/ 7 1018.4F BUOY 41002 1005 69 72 300/ 8/ 12 1016.9 3/11 3/100/11 BUOY 41010 1100 69 76 320/ 6/ 8 1018.3S 2/10 2/ 90/10 ST AUGUSTINE FL 1100 49 280/ 2/ 2 1019.6R $$

USA.gov is the U.S. government's official web portal to all federal, state and local government web resources and services.